Miscellaneous Local Product
Issued by NWS Hastings, NE

Home | Current Version | Previous Version | Text Only | Print | Product List | Glossary Off
Versions: 1 2 3 4 5 6 7 8 9 10 11 12 13 14 15 16 17 18 19 20 21 22 23 24 25 26 27 28 29 30 31 32 33 34 35 36 37 38 39 40 41 42 43 44 45 46 47 48 49 50

000
AXUS43 KGID 251302
MISGRI

GID CWA HOURLY WEATHER ROUNDUP
NATIONAL WEATHER SERVICE HASTINGS NE
700 AM CST SUN JAN 25 2015

NOTE: "FAIR" INDICATES FEW OR NO CLOUDS BELOW 12,000 FEET WITH NO
SIGNIFICANT WEATHER AND/OR OBSTRUCTIONS TO VISIBILITY.

...SOUTH CENTRAL NEBRASKA...

CITY           SKY/WX    TMP DP  RH WIND       PRES   REMARKS
GRAND ISLAND   CLOUDY    39  32  76 N25G36    29.90R WCI  28
HASTINGS       CLOUDY    40  30  67 N28G40    29.90R WCI  29
KEARNEY        CLEAR     37  27  65 NW20      29.94R WCI  27
ORD            CLOUDY    37  29  72 NW18G31   29.92R WCI  27
YORK           CLOUDY    36  32  87 N18G28    29.85R WCI  25
AURORA         CLOUDY    38  32  80 N23G33    29.89R WCI  27
LEXINGTON      MOCLDY    38  29  70 NW17      29.98R WCI  28
HOLDREGE       PTCLDY    39  27  62 N24G35    29.95R WCI  28
HEBRON         CLOUDY    40  31  70 NW23G32   29.85R WCI  30

...NEBRASKA PANHANDLE...

CITY           SKY/WX    TMP DP  RH WIND       PRES   REMARKS
CHADRON        CLEAR     34  26  72 W16       30.06S WCI  24
ALLIANCE       CLEAR     34  26  72 NW18      30.04F WCI  23
SCOTTSBLUFF    CLEAR     34  27  75 W12       30.11R WCI  25
SIDNEY         CLEAR     34  25  69 NW16      30.09S WCI  24

...WESTERN AND NORTH CENTRAL NEBRASKA...

CITY           SKY/WX    TMP DP  RH WIND       PRES   REMARKS
VALENTINE      CLEAR     35  28  75 NW17G29   29.97R WCI  25
AINSWORTH      CLOUDY    36  30  79 NW20G29   29.96S WCI  25
ONEILL         CLOUDY    37  35  91 NW20G26   29.92R WCI  27
BROKEN BOW     CLEAR     36  28  73 NW23G30   29.94R WCI  24
IMPERIAL       CLEAR     35  23  61 NW14      30.07R WCI  26
NORTH PLATTE   CLEAR     32  25  75 NW10      30.02R WCI  24
MCCOOK         CLEAR     38  25  59 NW18G32   30.03R WCI  28

...EASTERN NEBRASKA...

CITY           SKY/WX    TMP DP  RH WIND       PRES   REMARKS
NORFOLK        CLOUDY    34  31  88 NW22      29.88R WCI  22
SO SIOUX CITY  CLOUDY    35  32  88 N18G24    29.85R WCI  24
TEKAMAH        LGT RAIN  36  32  85 NW25G32   29.81R WCI  24
COLUMBUS       CLOUDY    34  27  75 N21G33    29.87R WCI  22
ALBION         CLOUDY    36  32  87 N17G25    29.89R WCI  25
OMAHA EPPLEY   CLOUDY    36  32  85 N25G32    29.77R WCI  24
OFFUTT AFB     CLOUDY    36  32  85 NW22G32   29.76R WCI  25
MILLARD        CLOUDY    37  32  84 NW17G25   29.78R WCI  27
LINCOLN        CLOUDY    36  31  82 N25G31    29.83R WCI  24
NEBRASKA CITY  DRIZZLE   35  31  86 N20G25    29.74R WCI  24
BEATRICE       CLOUDY    36  32  85 N21G32    29.81R WCI  25
FALLS CITY     CLOUDY    37  31  78 NW17G31   29.74R WCI  27

...NORTHERN KANSAS...

CITY           SKY/WX    TMP DP  RH WIND       PRES   REMARKS
GOODLAND       PTCLDY    39  23  52 NW25G32   30.07R WCI  28
HILL CITY      CLEAR     40  26  57 NW20G29   30.02R WCI  30
NORTON         SUNNY     34  25  69 NW14      30.01  WCI  24
PHILLIPSBURG   CLEAR     37  30  75 NW14G20   29.98R WCI  29
SMITH CENTER   MOCLDY    41  27  56 NW30G38   29.93R
BELOIT         CLOUDY    45  30  57 NW24G33   29.90R
HAYS           CLEAR     39  23  52 NW25G32   29.98R WCI  28
RUSSELL        MOCLDY    41  30  65 NW25G33   29.95R
CONCORDIA      CLOUDY    42  33  70 NW21G30   29.87R
SALINA         CLOUDY    46  33  60 NW29G47   29.87R
TOPEKA         CLOUDY    41  31  67 NW22G37   29.76R



USA.gov is the U.S. government's official web portal to all federal, state and local government web resources and services.